Location: Luz Observatory
(34.5000°N, 117.2833°W)
Time: 19:00:50
(UTC-07:00)

Daily predictions for brighter satellites

Satellite Brightness Start Highest point End
(mag) Time Altitude Azimuth Time Altitude Azimuth Time Altitude Azimuth
Meteor 1-21 Rocket 4.3 20:26:45 10° S 20:32:17 88° WNW 20:37:51 10° N
S3M 4.0 20:28:45 10° N 20:34:54 86° E 20:41:04 10° S
BREEZE M DEB (TANK) 1.7 20:33:10 10° WNW 20:35:02 51° SSW 20:38:04 10° SE
Cosmos 1515 Rocket 3.5 20:31:37 10° N 20:36:03 74° E 20:40:24 10° SSE
Cosmos 2322 Rocket 3.2 20:31:01 10° NNW 20:36:23 47° WSW 20:41:44 10° S
Resurs 01 Rocket 4.1 20:34:40 10° SSW 20:38:09 23° W 20:41:39 10° NW
deb Chang Zheng 4 4.2 20:34:33 10° NNE 20:38:34 35° E 20:42:33 10° SSE
ERBS 3.4 20:35:54 10° S 20:38:51 25° ESE 20:41:48 10° ENE
Cosmos 1151 Rocket 3.5 20:35:35 10° N 20:39:43 43° E 20:43:51 10° SSE
Cosmos 2322 3.9 20:35:44 10° NNW 20:41:24 60° ENE 20:47:00 10° SSE
ATLAS CENTAUR R/B 4.3 20:41:13 10° W 20:42:27 11° WSW 20:43:40 10° WSW
Cosmos 2360 Rocket 2.3 20:37:42 10° NNW 20:43:19 64° ENE 20:48:56 10° SSE
ATLAS 2AS CENTAUR R/B 4.0 20:38:41 10° SSE 20:43:53 21° ESE 20:49:22 10° ENE
ERS-1 Rocket 3.3 20:40:43 10° SSE 20:45:34 51° ENE 20:50:27 10° N
Cosmos 1674 2.7 20:44:25 10° S 20:48:15 85° E 20:52:08 10° N
Meteor 2-2 Rocket 4.4 20:43:21 10° N 20:49:24 82° E 20:55:26 10° S
SL-16 R/B 3.5 20:44:58 10° NW 20:50:11 38° WSW 20:55:22 10° S
Meteor 2-20 Rocket 4.5 20:44:05 10° S 20:50:11 72° E 20:56:19 10° NNE
Envisat 3.8 20:48:38 10° SE 20:53:14 36° ENE 20:57:50 10° N
Cosmos 1908 3.2 20:52:32 10° N 20:56:28 85° E 21:00:24 10° S
Sakura Rocket 4.2 20:53:30 10° SW 20:57:20 24° SSE 20:59:47 14° ESE
Cosmos 304 Rocket 3.7 20:53:46 10° NNW 20:58:36 79° ENE 21:03:23 10° SSE
H-2A R/B 1.4 20:57:13 10° SW 20:59:45 20° S 21:00:21 18° SSE
Cosmos 1805 Rocket 4.0 20:55:58 10° SSE 21:00:09 41° E 21:04:20 10° NNE
Cosmos 883 Rocket 4.5 20:55:57 10° N 21:02:07 70° E 21:08:11 10° SSE
SJ-11-01 4.3 20:58:02 10° SSE 21:02:44 76° ENE 21:07:29 10° N
NOSS 3-1 (C) 3.5 21:00:32 10° SW 21:06:18 80° WNW 21:12:39 10° NNE
Cosmos 1300 3.7 21:05:21 10° NNE 21:08:47 30° E 21:10:50 18° SE
Cosmos 2227 Rocket 3.1 21:04:49 10° SSE 21:09:27 27° ESE 21:14:07 10° NE
Cosmos 1937 Rocket 4.0 21:05:25 10° SSE 21:10:13 38° E 21:15:00 10° NE
USA 186 3.9 21:08:56 10° SW 21:10:25 15° W 21:11:55 10° NW
CZ-4 DEB 4.4 21:09:50 10° SSW 21:12:46 33° W 21:15:43 10° NNW
Cosmos 2112 Rocket 4.0 21:09:53 10° NNW 21:15:10 88° ENE 21:19:47 14° SSE
H-2A R/B 2.1 21:13:30 13° SSE 21:17:31 80° ENE 21:22:03 10° N
SPOT 5 3.1 21:19:17 19° SE 21:22:22 52° ENE 21:27:06 10° N
Cosmos 1707 Rocket 3.9 21:18:40 10° N 21:22:55 49° E 21:25:27 22° SSE
Cosmos 1666 Rocket 3.7 21:19:27 13° S 21:23:12 56° E 21:27:33 10° NNE
OTV 4 0.6 21:20:55 10° WSW 21:23:53 73° NNW 21:26:19 14° ENE
Cosmos 2298 Rocket 4.1 21:21:41 10° SSW 21:27:00 84° WNW 21:32:20 10° NNE
ARGOS 4.2 21:26:16 19° ESE 21:28:57 29° ENE 21:33:32 10° N
SL-16 R/B 4.5 21:28:52 10° NE 21:29:27 10° NE 21:30:01 10° ENE
Hubble Space Telescope 1.7 21:25:51 10° SW 21:29:28 30° S 21:30:22 27° SSE
Meteor 1-11 4.2 21:24:49 10° S 21:30:35 80° E 21:36:19 10° N
Cosmos 1455 4.4 21:29:08 10° NE 21:30:43 12° ENE 21:30:51 12° ENE
CZ-4B R/B 3.8 21:26:11 10° NNE 21:31:11 45° E 21:34:27 20° SSE
Cosmos 1726 2.5 21:28:52 10° N 21:32:32 47° E 21:33:54 31° SE
Cosmos 2333 Rocket 3.3 21:29:56 10° N 21:34:58 30° ENE 21:37:44 21° ESE
Cosmos 2297 Rocket 2.9 21:33:34 23° SE 21:35:50 31° ESE 21:40:45 10° NE
Cosmos 1470 Rocket 4.5 21:36:19 27° ESE 21:37:08 29° E 21:40:52 10° NNE
Cosmos 1241 Rocket 4.4 21:32:17 10° SSW 21:38:22 65° ESE 21:44:32 10° NE
Meteor 1-4 Rocket 3.1 21:37:07 10° N 21:40:37 40° ENE 21:41:20 35° ESE
Cosmos 2315 Rocket 4.1 21:35:15 10° N 21:41:27 80° W 21:46:45 15° S
Cosmos 2058 3.6 21:37:40 10° SSW 21:41:40 52° W 21:45:41 10° N
Cosmos 2219 Rocket 2.7 21:36:53 10° N 21:42:15 45° ENE 21:44:50 27° ESE
COSMOS 2428 2.8 21:41:19 10° NNW 21:47:00 77° WSW 21:50:27 25° S
DELTA 2 R/B (1) 4.3 21:44:01 10° W 21:49:10 40° SSW 21:51:24 28° SSE
NOSS 0 Rocket 4.3 21:44:49 10° N 21:50:47 49° ENE 21:53:36 29° ESE
Terra 3.4 21:53:14 18° E 21:54:09 19° ENE 21:57:28 10° NNE
Tiangong 1 3.8 21:52:00 10° NW 21:54:18 19° N 21:56:36 10° NE
Nadezhda 1 Rocket 4.5 21:48:58 10° N 21:54:42 41° E 21:56:55 31° ESE
Cosmos 1939 Rocket 4.4 21:54:32 13° SSW 21:57:23 30° W 22:00:50 10° NW
H-2A R/B 3.3 21:56:03 24° E 21:57:35 27° ENE 22:02:05 10° NNE
Cosmos 1898 Rocket 4.4 21:53:11 10° SW 21:58:10 48° WNW 22:03:13 10° N
SL-08 R/B 4.4 21:54:13 20° S 21:58:41 79° E 22:04:59 10° N
Delta 2 Rocket 2.7 21:55:16 10° W 21:58:56 75° SSW 21:59:11 70° SSE
CZ-4 SHROUD 4.1 22:01:22 38° SW 22:02:00 44° W 22:05:01 10° NNW
COSMOS 2455 4.3 21:57:41 10° N 22:02:30 24° NE 22:04:58 19° E
Cosmos 1125 Rocket 4.1 22:03:57 35° ESE 22:04:15 35° E 22:09:01 10° NE
Cosmos 1745 Rocket 3.9 22:01:30 25° S 22:05:16 76° E 22:11:26 10° N
Cosmos 1980 4.0 22:01:22 10° N 22:06:53 53° ENE 22:08:40 38° ESE
MetOp-B 4.3 22:04:48 28° S 22:07:37 69° WSW 22:12:58 10° NNW
SL-23 DEB 4.2 22:04:55 10° WNW 22:09:03 42° SW 22:09:21 40° SW
SPOT 1/Viking Rocket 3.4 22:08:10 40° SSE 22:10:06 87° ENE 22:15:17 10° NNW
Cosmos 1626 2.4 22:11:29 53° ENE 22:11:29 53° ENE 22:14:50 10° NNE
Sich 1 4.2 22:08:25 13° SSW 22:12:00 42° W 22:16:10 10° N
OAO 2 Rocket 3.4 22:09:05 10° W 22:14:26 84° N 22:16:58 32° E
YAOGAN 6 3.1 22:13:57 47° SW 22:14:32 54° W 22:18:04 10° NNW
Cosmos 1869 4.2 22:11:28 10° NNE 22:14:51 35° ENE 22:14:51 35° ENE
Cosmos 1271 Rocket 2.8 22:11:33 10° NNW 22:15:24 70° W 22:15:59 58° SSW
Iridium 2 3.6 22:15:42 68° SSW 22:16:08 82° W 22:20:00 10° N
Cosmos 2237 Rocket 2.3 22:12:57 10° NNW 22:18:36 61° ENE 22:20:07 45° ESE
CARTOSAT-1 4.5 22:19:15 34° ENE 22:19:15 34° ENE 22:23:07 10° N
Cosmos 1633 Rocket 4.5 22:16:40 14° SW 22:20:01 35° W 22:24:03 10° NNW
Cosmos 2082 3.9 22:15:40 10° SSW 22:21:21 71° WNW 22:27:05 10° NNE
Cosmos 1862 Rocket 3.6 22:17:57 10° N 22:22:13 57° E 22:22:15 57° E
Cosmos 1386 Rocket 4.3 22:20:38 40° S 22:22:55 76° E 22:28:56 10° N
Cosmos 1703 4.5 22:25:33 27° SW 22:27:01 38° W 22:30:42 10° N
IGS 5A 4.5 22:27:25 34° ENE 22:27:25 34° ENE 22:30:50 10° N
CZ-4C R/B 3.7 22:27:55 46° NNE 22:27:55 46° NNE 22:30:36 10° N
NOAA 11 4.2 22:26:59 47° S 22:28:39 80° WSW 22:34:07 10° NNW
Cosmos 2242 Rocket 4.5 22:26:32 10° NNW 22:30:49 45° W 22:32:07 35° SW
ATLAS 2AS CENTAUR R/B 3.2 22:26:41 10° SW 22:34:02 71° WNW 22:42:02 10° NNE
CZ-4 R/B 4.4 22:30:15 10° N 22:35:01 54° WNW 22:37:15 29° SW
Cosmos 192 4.1 22:40:38 10° NNW 22:45:34 87° ENE 22:45:44 84° SE
ATLAS 3B R/B 3.1 22:39:27 10° NNW 22:46:12 51° NE 22:47:56 41° E
CZ-3A R/B 3.9 22:34:17 10° W 22:46:45 33° SSW 22:46:45 33° SSW
Cosmos 2181 Rocket 4.2 22:45:21 10° N 22:51:38 54° E 22:52:25 51° ESE
Cosmos 2227 Rocket 3.6 22:48:09 10° SW 22:53:17 35° WNW 22:58:27 10° N
Cosmos 468 4.4 22:48:58 10° NNW 22:54:20 81° ENE 22:54:31 79° ESE
Spot 2 4.3 22:53:43 10° NNE 22:58:32 82° NNE 22:58:32 82° NNE
OTV 4 3.7 22:57:37 10° WNW 22:57:53 12° WNW 22:57:53 12° WNW
DMSP B5D2-2 4.1 22:55:27 10° N 23:00:39 74° WNW 23:01:16 66° SW
Okean 1-7 4.5 23:00:00 10° NNE 23:02:33 28° NE 23:02:33 28° NE
Cosmos 1455 3.8 23:03:05 10° NNW 23:05:54 31° WNW 23:05:54 31° WNW
NOSS 2-3 (E) 4.1 23:08:26 65° W 23:08:47 68° WNW 23:14:10 10° NNE
ARGOS 4.5 23:07:47 27° WSW 23:09:03 30° W 23:13:46 10° NW
SL-16 R/B 2.1 23:08:45 10° NNW 23:14:25 79° ENE 23:14:25 79° ENE
Cosmos 2333 Rocket 3.3 23:14:05 10° NW 23:19:09 32° WSW 23:19:45 32° WSW
Cosmos 2297 Rocket 3.8 23:15:16 12° WSW 23:19:46 30° WNW 23:24:44 10° N
SeaSat 1 4.2 23:20:10 21° ENE 23:20:24 21° NE 23:24:01 10° N
Cosmos 44 Rocket 3.9 23:22:02 53° W 23:22:35 55° WNW 23:27:43 10° NNE
Lacrosse 4 Rocket 2.4 23:18:23 10° NNW 23:21:37 48° NNW 23:21:37 48° NNW
Cosmos 1703 Rocket 4.4 23:19:27 10° N 23:22:40 47° NNW 23:22:40 47° NNW
Cosmos 2219 Rocket 4.0 23:21:49 10° NW 23:25:46 20° W 23:26:34 19° WSW
Terra 3.0 23:32:08 35° W 23:32:08 35° W 23:35:58 10° NNW
H-2A R/B 3.3 23:36:42 33° W 23:36:47 33° W 23:41:39 10° NNW
COSMOS 2455 3.4 23:42:53 10° NW 23:48:06 48° W 23:48:06 48° W
Cosmos 1603 4.2 23:43:13 10° NNW 23:48:14 54° NE 23:48:14 54° NE
